When you browse on this site, cookies collect data to enhance your experience and personalize the content and advertising you see.
Visit our Privacy Policy to learn more. By continuing to use the site, you agree to this use of cookies and data.
  • In Österreich
  • Länderverzeichnis
  • Für 7 Tage
  • Wassertemperatur
  • Wetterkarte
  • News
  • Widgets
  • user-avatar
    Anmelden

    Stündliche Wetter Santa Ana Hueytlalpan

    Heute, 22 August, Donnerstag

    Zeit Temperatur Niederschläge Wind Luftdruck Luftfeuchtigkeit
    00:00 +13°C° 0.1 mm 1 m/S 589 mmHg 95%
    01:00 +13°C° 0.1 mm 1 m/S 588 mmHg 94%
    02:00 +13°C° 0.1 mm 1 m/S 588 mmHg 93%
    03:00 +13°C° 0.2 mm 1 m/S 588 mmHg 92%
    04:00 +14°C° 0.2 mm 1 m/S 588 mmHg 91%
    05:00 +14°C° 0.2 mm 1 m/S 588 mmHg 90%
    06:00 +16°C° 0 mm 1 m/S 589 mmHg 83%
    07:00 +19°C° 0 mm 1 m/S 590 mmHg 76%
    08:00 +19°C° 0 mm 0 m/S 591 mmHg 69%
    09:00 +21°C° 0.6 mm 1 m/S 591 mmHg 69%
    10:00 +22°C° 0.6 mm 1 m/S 591 mmHg 69%
    11:00 +21°C° 0.6 mm 2 m/S 591 mmHg 69%
    12:00 +21°C° 1.9 mm 2 m/S 590 mmHg 74%
    13:00 +20°C° 1.9 mm 2 m/S 590 mmHg 80%
    14:00 +19°C° 1.9 mm 2 m/S 589 mmHg 85%
    15:00 +19°C° 0.9 mm 2 m/S 589 mmHg 88%
    16:00 +19°C° 0.9 mm 1 m/S 588 mmHg 90%
    17:00 +18°C° 0.9 mm 1 m/S 588 mmHg 93%
    18:00 +18°C° 0.5 mm 1 m/S 588 mmHg 93%
    19:00 +16°C° 0.5 mm 1 m/S 588 mmHg 93%
    20:00 +15°C° 0.5 mm 1 m/S 589 mmHg 94%
    21:00 +15°C° 0.1 mm 1 m/S 589 mmHg 92%
    22:00 +15°C° 0.1 mm 1 m/S 588 mmHg 91%
    23:00 +14°C° 0.1 mm 1 m/S 588 mmHg 90%

    Morgen, 23 August, Freitag

    Zeit Temperatur Niederschläge Wind Luftdruck Luftfeuchtigkeit
    00:00 +14°C° 0 mm 1 m/S 588 mmHg 90%
    01:00 +14°C° 0 mm 1 m/S 588 mmHg 89%
    02:00 +14°C° 0 mm 1 m/S 588 mmHg 89%
    03:00 +14°C° 0 mm 1 m/S 587 mmHg 89%
    04:00 +13°C° 0 mm 2 m/S 587 mmHg 89%
    05:00 +13°C° 0 mm 2 m/S 587 mmHg 90%
    06:00 +15°C° 0 mm 1 m/S 589 mmHg 83%
    07:00 +19°C° 0 mm 1 m/S 590 mmHg 77%
    08:00 +21°C° 0 mm 1 m/S 591 mmHg 70%
    09:00 +22°C° 0.6 mm 1 m/S 591 mmHg 68%
    10:00 +21°C° 0.6 mm 2 m/S 591 mmHg 66%
    11:00 +23°C° 0.6 mm 2 m/S 591 mmHg 65%
    12:00 +21°C° 1.8 mm 2 m/S 591 mmHg 72%
    13:00 +20°C° 1.8 mm 2 m/S 590 mmHg 79%
    14:00 +19°C° 1.8 mm 2 m/S 589 mmHg 87%
    15:00 +18°C° 1.7 mm 2 m/S 588 mmHg 88%
    16:00 +17°C° 1.7 mm 2 m/S 588 mmHg 89%
    17:00 +18°C° 1.7 mm 1 m/S 587 mmHg 90%
    18:00 +16°C° 0.1 mm 1 m/S 588 mmHg 89%
    19:00 +16°C° 0.1 mm 2 m/S 588 mmHg 88%
    20:00 +15°C° 0.1 mm 2 m/S 589 mmHg 87%
    21:00 +15°C° 0 mm 2 m/S 588 mmHg 87%
    22:00 +15°C° 0 mm 2 m/S 588 mmHg 87%
    23:00 +14°C° 0 mm 2 m/S 588 mmHg 86%

    übermorgen, 24 August, Samstag

    Zeit Temperatur Niederschläge Wind Luftdruck Luftfeuchtigkeit
    00:00 +14°C° 0 mm 2 m/S 588 mmHg 86%
    01:00 +14°C° 0 mm 2 m/S 588 mmHg 86%
    02:00 +14°C° 0 mm 1 m/S 588 mmHg 86%
    03:00 +14°C° 0 mm 1 m/S 588 mmHg 85%
    04:00 +14°C° 0 mm 1 m/S 588 mmHg 85%
    05:00 +14°C° 0 mm 1 m/S 588 mmHg 84%
    06:00 +16°C° 0 mm 1 m/S 589 mmHg 78%
    07:00 +19°C° 0 mm 1 m/S 590 mmHg 72%
    08:00 +21°C° 0 mm 1 m/S 592 mmHg 66%
    09:00 +22°C° 0.1 mm 1 m/S 592 mmHg 62%
    10:00 +24°C° 0.1 mm 1 m/S 592 mmHg 58%
    11:00 +25°C° 0.1 mm 2 m/S 592 mmHg 55%
    12:00 +24°C° 1.6 mm 2 m/S 591 mmHg 62%
    13:00 +23°C° 1.6 mm 2 m/S 590 mmHg 69%
    14:00 +21°C° 1.6 mm 2 m/S 589 mmHg 77%
    15:00 +20°C° 1.4 mm 2 m/S 589 mmHg 81%
    16:00 +21°C° 1.4 mm 1 m/S 589 mmHg 86%
    17:00 +20°C° 1.4 mm 1 m/S 588 mmHg 90%
    18:00 +19°C° 0.6 mm 1 m/S 588 mmHg 91%
    19:00 +18°C° 0.6 mm 1 m/S 589 mmHg 91%
    20:00 +16°C° 0.6 mm 0 m/S 589 mmHg 91%
    21:00 +16°C° 0.2 mm 1 m/S 589 mmHg 90%
    22:00 +16°C° 0.2 mm 1 m/S 589 mmHg 88%
    23:00 +16°C° 0.2 mm 1 m/S 589 mmHg 87%

    25 August, Sonntag

    Zeit Temperatur Niederschläge Wind Luftdruck Luftfeuchtigkeit
    00:00 +15°C° 0 mm 1 m/S 588 mmHg 87%
    01:00 +15°C° 0 mm 1 m/S 588 mmHg 87%
    02:00 +14°C° 0 mm 1 m/S 587 mmHg 87%
    03:00 +14°C° 0 mm 1 m/S 587 mmHg 87%
    04:00 +14°C° 0 mm 1 m/S 587 mmHg 86%
    05:00 +14°C° 0 mm 1 m/S 587 mmHg 86%
    06:00 +16°C° 0 mm 1 m/S 588 mmHg 79%
    07:00 +20°C° 0 mm 1 m/S 590 mmHg 72%
    08:00 +20°C° 0 mm 0 m/S 591 mmHg 66%
    09:00 +23°C° 0.1 mm 1 m/S 591 mmHg 62%
    10:00 +24°C° 0.1 mm 1 m/S 591 mmHg 59%
    11:00 +25°C° 0.1 mm 2 m/S 592 mmHg 56%
    12:00 +24°C° 1.5 mm 2 m/S 590 mmHg 65%
    13:00 +23°C° 1.5 mm 2 m/S 589 mmHg 73%
    14:00 +21°C° 1.5 mm 2 m/S 588 mmHg 82%
    15:00 +21°C° 1.1 mm 2 m/S 588 mmHg 85%
    16:00 +21°C° 1.1 mm 1 m/S 588 mmHg 88%
    17:00 +20°C° 1.1 mm 1 m/S 588 mmHg 91%
    18:00 +19°C° 0.6 mm 1 m/S 588 mmHg 92%
    19:00 +18°C° 0.6 mm 1 m/S 588 mmHg 93%
    20:00 +16°C° 0.6 mm 1 m/S 588 mmHg 94%
    21:00 +16°C° 0.2 mm 1 m/S 588 mmHg 92%
    22:00 +16°C° 0.2 mm 1 m/S 588 mmHg 90%
    23:00 +16°C° 0.2 mm 1 m/S 588 mmHg 88%

    26 August, Montag

    Zeit Temperatur Niederschläge Wind Luftdruck Luftfeuchtigkeit
    00:00 +16°C° 0.5 mm 1 m/S 587 mmHg 88%
    01:00 +15°C° 0.5 mm 1 m/S 587 mmHg 89%
    02:00 +15°C° 0.5 mm 1 m/S 587 mmHg 89%
    03:00 +15°C° 0.7 mm 1 m/S 587 mmHg 89%
    04:00 +15°C° 0.7 mm 1 m/S 587 mmHg 89%
    05:00 +15°C° 0.7 mm 1 m/S 587 mmHg 89%
    06:00 +16°C° 0 mm 1 m/S 588 mmHg 83%
    07:00 +17°C° 0 mm 0 m/S 589 mmHg 78%
    08:00 +19°C° 0 mm 0 m/S 590 mmHg 72%
    09:00 +22°C° 0.8 mm 1 m/S 590 mmHg 71%
    10:00 +23°C° 0.8 mm 1 m/S 590 mmHg 69%
    11:00 +24°C° 0.8 mm 1 m/S 590 mmHg 68%
    12:00 +23°C° 1.6 mm 1 m/S 589 mmHg 74%
    13:00 +21°C° 1.6 mm 2 m/S 588 mmHg 80%
    14:00 +20°C° 1.6 mm 2 m/S 587 mmHg 86%
    15:00 +19°C° 0.7 mm 2 m/S 587 mmHg 88%
    16:00 +19°C° 0.7 mm 2 m/S 587 mmHg 90%
    17:00 +19°C° 0.7 mm 2 m/S 587 mmHg 92%
    18:00 +19°C° 0.7 mm 1 m/S 587 mmHg 92%
    19:00 +18°C° 0.7 mm 1 m/S 587 mmHg 93%
    20:00 +16°C° 0.7 mm 1 m/S 587 mmHg 94%
    21:00 +15°C° 0.5 mm 1 m/S 587 mmHg 92%
    22:00 +15°C° 0.5 mm 1 m/S 587 mmHg 91%
    23:00 +15°C° 0.5 mm 1 m/S 588 mmHg 90%

    27 August, Dienstag

    Zeit Temperatur Niederschläge Wind Luftdruck Luftfeuchtigkeit
    00:00 +15°C° 1 mm 1 m/S 587 mmHg 90%
    01:00 +14°C° 1 mm 1 m/S 587 mmHg 90%
    02:00 +14°C° 1 mm 1 m/S 587 mmHg 90%
    03:00 +14°C° 0.3 mm 1 m/S 587 mmHg 90%
    04:00 +14°C° 0.3 mm 1 m/S 587 mmHg 90%
    05:00 +14°C° 0.3 mm 1 m/S 587 mmHg 90%
    06:00 +14°C° 0 mm 0 m/S 588 mmHg 86%
    07:00 +16°C° 0 mm 0 m/S 589 mmHg 82%
    08:00 +18°C° 0 mm 0 m/S 590 mmHg 78%
    09:00 +20°C° 0.7 mm 1 m/S 590 mmHg 76%
    10:00 +21°C° 0.7 mm 1 m/S 590 mmHg 74%
    11:00 +21°C° 0.7 mm 2 m/S 590 mmHg 72%
    12:00 +21°C° 0.8 mm 2 m/S 589 mmHg 75%
    13:00 +20°C° 0.8 mm 2 m/S 589 mmHg 78%
    14:00 +20°C° 0.8 mm 2 m/S 588 mmHg 81%
    15:00 +19°C° 0.8 mm 2 m/S 588 mmHg 85%
    16:00 +18°C° 0.8 mm 2 m/S 588 mmHg 88%
    17:00 +18°C° 0.8 mm 2 m/S 587 mmHg 91%
    18:00 +18°C° 0.6 mm 1 m/S 588 mmHg 93%
    19:00 +16°C° 0.6 mm 1 m/S 588 mmHg 94%
    20:00 +15°C° 0.6 mm 1 m/S 588 mmHg 95%
    21:00 +15°C° 0.7 mm 1 m/S 588 mmHg 94%
    22:00 +15°C° 0.7 mm 1 m/S 588 mmHg 93%
    23:00 +15°C° 0.7 mm 1 m/S 589 mmHg 91%
    Mehr zeigen